Hourly Weather Roundup
Issued by NWS

Current Version | Previous Version | Text Only | Print | Product List | Glossary On
Versions: 1 2 3 4 5 6 7 8 9 10 11 12 13 14 15 16 17 18 19 20 21 22 23 24 25 26 27 28 29 30 31 32 33 34 35 36 37 38 39 40 41 42 43 44 45 46 47 48 49 50
000
NZUS43 KILX 070210
HWRCRS

NWR Hourly Weather Roundup
National Weather Service Lincoln IL
800 PM CST SAT MAR 06 2021


CITY           SKY/WX    TMP DP  RH WIND       PRES   REMARKS
Champaign      CLEAR     39  27  62 N5        30.30R
Lawrenceville  CLEAR     43  28  55 W3        30.31S
Peoria         CLEAR     43  26  51 NE6       30.30R
Springfield    CLEAR     42  24  49 CALM      30.29R
$$


CITY           SKY/WX    TMP DP  RH WIND       PRES   REMARKS
Bloomington    CLEAR     39  29  67 NE7       30.31R WCI  34
Danville       CLEAR     40  28  60 N3        30.31S
Decatur        CLEAR     38  27  64 E3        30.30R
Effingham      CLEAR     39  29  67 CALM      30.32S
Flora          CLEAR     39  30  70 SW3       30.31R
Galesburg      CLEAR     37  26  65 E3        30.30R
Jacksonville   CLEAR     42  25  50 CALM      30.30R
Lacon          CLEAR     36  30  79 CALM      30.31R
La Salle         N/A     38  32  77 CALM      30.32R
Lincoln        CLEAR     39  26  59 CALM      30.30R
Litchfield     CLEAR     41  31  66 S5        30.31R

CITY           SKY/WX    TMP DP  RH WIND       PRES   REMARKS
Macomb         CLEAR     44  29  54 CALM      30.30S
Mattoon        CLEAR     40  30  67 CALM      30.29R
Moline         CLEAR     35  29  78 E6        30.29R WCI  30
Olney          CLEAR     40  29  63 CALM      30.32R
Paris          CLEAR     34  32  92 CALM      30.31R
Pontiac        CLEAR     36  29  78 NE8       30.32R WCI  29
Quincy         CLEAR     46  25  43 SE6       30.28R
Rantoul        CLEAR     40  29  65 N6        30.30S
Robinson       CLEAR     33  28  80 CALM      30.32S
Taylorville    CLEAR     43  28  56 CALM      30.30R
Terre Haute    CLOUDY    40  29  64 CALM      30.30R
$$


CITY           SKY/WX    TMP DP  RH WIND       PRES   REMARKS
Burlington     CLEAR     42  28  57 E5        30.27R
Chicago        CLEAR     34  24  67 E5        30.31S WCI  30
Des Moines     CLEAR     48  35  60 E9        30.21S
Evansville     CLEAR     42  24  49 CALM      30.32R
Indianapolis   CLOUDY    43  23  45 CALM      30.29S
Kansas City    CLEAR     49  35  58 S9        30.20R
Milwaukee      CLEAR     31  25  78 SE5       30.31F WCI  26
St Louis       PTCLDY    46  26  45 SE5       30.30R
$$




USA.gov is the U.S. government's official web portal to all federal, state and local government web resources and services.